Simultaneous Nadir Overpasses (SNOs) Predictions

Prediction of SNOs between GOES-16 and METOP-B Satellite Orbit:

Table of predicted SNOs for the next 14.0 days since TLE Epoch: 3/3/2017
Index Date Time (GOES-16) GOES-16 Lat,Lon METOP-B Lat,Lon Distance(km) Time Diff (sec)
1 03/05/2017 03:27:06 -0.00, -89.49 0.04, -89.21 31.54 80
2 03/06/2017 15:45:59 0.00, -89.54 0.94, -93.78 483.12 80
3 03/07/2017 15:27:59 -0.00, -89.55 -0.17, -88.78 87.20 80
4 03/09/2017 03:46:59 0.00, -89.54 -0.87, -93.38 438.12 80
5 03/10/2017 03:23:40 0.00, -89.55 0.24, -88.38 132.39 80
6 03/11/2017 15:42:32 -0.00, -89.61 0.73, -92.95 381.22 80
7 03/12/2017 15:24:33 -0.00, -89.63 -0.38, -87.96 189.89 80
8 03/14/2017 03:43:33 0.00, -89.62 -0.66, -92.56 334.11 80
9 03/15/2017 03:20:14 0.00, -89.64 0.45, -87.56 237.07 80
10 03/16/2017 15:39:06 -0.00, -89.71 0.52, -92.13 275.83 80




NCC Satellite Simultaneous Nadir Overpasses (SNOs) Prediction Service
